This is the latest recevied weather packets stored in our database for station/object SQ5DN-4. If no packets are shown the sender has not sent any weather packets the latest 10 day(s).
| Time | Temp. | Humidity | Pressure | Rain* | Wind** | Luminosity | Snow |
|---|---|---|---|---|---|---|---|
| 1777731336 | 25.56° C | 27% | 1017 hPa | - | - | - | - |
| 1777730847 | 25.56° C | 28% | 1017 hPa | - | - | - | - |
| 1777730362 | 26.11° C | 26% | 1017 hPa | - | - | - | - |
| 1777729796 | 26.67° C | 27% | 1017 hPa | - | - | - | - |
| 1777729302 | 26.67° C | 28% | 1017 hPa | - | - | - | - |
| 1777728822 | 26.67° C | 28% | 1017 hPa | - | - | - | - |
| 1777728266 | 25.56° C | 27% | 1017 hPa | - | - | - | - |
| 1777727687 | 26.11° C | 28% | 1017 hPa | - | - | - | - |
| 1777727156 | 25.56° C | 27% | 1017 hPa | - | - | - | - |
| 1777726602 | 26.67° C | 27% | 1017 hPa | - | - | - | - |
| 1777726042 | 26.67° C | 27% | 1017 hPa | - | - | - | - |
| 1777725502 | 26.11° C | 28% | 1018 hPa | - | - | - | - |
| 1777724942 | 25.56° C | 29% | 1018 hPa | - | - | - | - |
| 1777724402 | 26.11° C | 28% | 1019 hPa | - | - | - | - |
| 1777723836 | 26.11° C | 28% | 1019 hPa | - | - | - | - |
| 1777723261 | 25.56° C | 30% | 1019 hPa | - | - | - | - |
| 1777722747 | 25.56° C | 30% | 1019 hPa | - | - | - | - |
| 1777722172 | 25.56° C | 27% | 1019 hPa | - | - | - | - |
| 1777721612 | 25.56° C | 28% | 1019 hPa | - | - | - | - |
| 1777721022 | 25° C | 29% | 1019 hPa | - | - | - | - |
| 1777720512 | 25° C | 29% | 1019 hPa | - | - | - | - |
| 1777719943 | 24.44° C | 29% | 1019 hPa | - | - | - | - |
| 1777719436 | 23.89° C | 30% | 1019 hPa | - | - | - | - |
| 1777718836 | 24.44° C | 31% | 1019 hPa | - | - | - | - |
| 1777718252 | 23.89° C | 31% | 1019 hPa | - | - | - | - |
* Rain since midnight (hover to see other rain measurements)
** Current wind speed in m/s (hover to see current wind gust speed)